Hoquiam, WA

11:57 AM PDT on June 22, 2017 (GMT -0700)
Bowerman

Weather History for KHQM - March, 2014

Change the Weather History Date:

Friday, March 14, 2014

  Actual Average Record
Temperature  
Mean Temperature 50 °F 46 °F  
Max Temperature 54 °F 52 °F 70 °F (1996)
Min Temperature 45 °F 40 °F 29 °F (1956)
Degree Days  
Heating Degree Days 15 19  
Month to date heating degree days 234 275  
Cooling Degree Days 0 0  
Month to date cooling degree days 0 0  
Year to date cooling degree days 0 0  
Moisture  
Dew Point 47 °F    
Average Humidity 86    
Maximum Humidity 100    
Minimum Humidity 71    
Precipitation  
Precipitation 0.49 in 0.24 in 1.20 in (2017)
Month to date precipitation 8.75 3.17  
Year to date precipitation 23.27 20.71  
Sea Level Pressure  
Sea Level Pressure 30.09 in    
Wind  
Wind Speed 14 mph (SW)    
Max Wind Speed 33 mph    
Max Gust Speed 40 mph    
Visibility 4 miles    
Events Rain    
T = Trace of Precipitation, MM = Missing Value Source: NWS Daily Summary

Daily Weather History Graph

Daily Weather History Graph

Search for Another Location

Airport or City:

Trip Planner

Search our weather history database for the weather conditions in past years. The results will help you decide how hot, cold, wet, or windy it might be!

Date:

Astronomy

Mar. 14, 2014 Rise Set
Actual Time 7:30 AM PDT 7:20 PM PDT
Civil Twilight 7:00 AM PDT 7:50 PM PDT
Nautical Twilight 6:24 AM PDT 8:25 PM PDT
Astronomical Twilight 5:48 AM PDT 9:02 PM PDT
Moon 5:43 PM PDT (3/14) 6:18 AM PDT (3/14)
Length of Visible Light 12h 50m
Length of Day
11h 49m
Waxing Gibbous, 96% of the Moon is Illuminated
Mar 14
Waxing Gibbous
Mar 16
Full
Mar 23
Last Quarter
Mar 30
New
Apr 7
First Quarter

Hourly Weather History & Observations

Time (PDT) Temp. Windchill Dew Point Humidity Pressure Visibility Wind Dir Wind Speed Gust Speed Precip Events Conditions
12:53 AM 48.9 °F - 48.0 °F 97% 30.00 in 4.0 mi South 13.8 mph - 0.08 in Rain Light Rain
1:53 AM 50.0 °F - 48.0 °F 93% 29.98 in 4.0 mi South 19.6 mph - 0.09 in Rain Light Rain
2:53 AM 50.0 °F - 48.9 °F 96% 29.96 in 4.0 mi South 18.4 mph - 0.10 in Rain Light Rain
3:31 AM 50.0 °F - 48.9 °F 96% 29.94 in 3.0 mi South 21.9 mph - 0.06 in Rain Light Rain
3:37 AM 50.0 °F - 48.9 °F 96% 29.94 in 2.5 mi South 23.0 mph - 0.07 in Rain Light Rain
3:53 AM 50.0 °F - 48.9 °F 96% 29.94 in 3.0 mi South 21.9 mph - 0.09 in Rain Light Rain
4:03 AM 50.0 °F - 48.9 °F 96% 29.93 in 1.8 mi South 25.3 mph 34.5 mph 0.01 in Rain Light Rain
4:15 AM 50.0 °F - 48.9 °F 96% 29.93 in 2.0 mi South 25.3 mph 35.7 mph 0.03 in Rain Light Rain
4:21 AM 50.0 °F - 48.9 °F 96% 29.93 in 2.0 mi South 25.3 mph 32.2 mph 0.03 in Rain Light Rain
4:41 AM 50.0 °F - 48.9 °F 96% 29.93 in 2.5 mi South 23.0 mph 35.7 mph 0.05 in Rain Light Rain
4:53 AM 50.0 °F - 48.9 °F 96% 29.94 in 2.5 mi South 25.3 mph 32.2 mph 0.06 in Rain Light Rain
5:05 AM 50.0 °F - 48.9 °F 96% 29.92 in 1.8 mi South 26.5 mph - 0.00 in   Overcast
5:09 AM 50.0 °F - 48.9 °F 96% 29.93 in 1.5 mi South 25.3 mph 32.2 mph 0.01 in Rain Light Rain
5:15 AM 50.0 °F - 48.9 °F 96% 29.93 in 2.0 mi South 27.6 mph 34.5 mph 0.01 in Rain Light Rain
5:23 AM 50.0 °F - 48.9 °F 96% 29.93 in 3.0 mi South 24.2 mph 34.5 mph 0.01 in Rain Light Rain
5:30 AM 50.0 °F - 48.9 °F 96% 29.93 in 2.5 mi South 24.2 mph 32.2 mph 0.02 in Rain Light Rain
5:50 AM 50.0 °F - 48.2 °F 94% 29.93 in 1.5 mi South 24.2 mph 32.2 mph 0.04 in Rain Light Rain
5:53 AM 50.0 °F - 48.9 °F 96% 29.94 in 1.5 mi South 24.2 mph 32.2 mph 0.04 in Rain Light Rain
6:30 AM 50.0 °F - 48.9 °F 96% 29.94 in 1.8 mi SSW 31.1 mph 39.1 mph 0.09 in Rain Light Rain
6:35 AM 50.0 °F - 48.9 °F 96% 29.94 in 3.0 mi SW 25.3 mph 39.1 mph 0.10 in Rain Light Rain
6:42 AM 50.0 °F - 48.9 °F 96% 29.95 in 4.0 mi SW 19.6 mph 29.9 mph 0.11 in Rain Light Rain
6:45 AM 50.0 °F - 48.9 °F 96% 29.95 in 5.0 mi SW 19.6 mph - 0.11 in Rain Light Rain
6:53 AM 50.0 °F - 48.9 °F 96% 29.96 in 6.0 mi SW 18.4 mph - 0.11 in Rain Light Rain
7:07 AM 50.0 °F - 48.9 °F 96% 29.95 in 7.0 mi WSW 12.7 mph - 0.00 in   Overcast
7:53 AM 50.0 °F - 48.0 °F 93% 30.01 in 5.0 mi WSW 17.3 mph - 0.00 in   Mostly Cloudy
7:56 AM 50.0 °F - 46.9 °F 89% 30.00 in 5.0 mi West 17.3 mph - N/A   Scattered Clouds
8:34 AM 50.0 °F - 46.9 °F 89% 30.02 in 4.0 mi WSW 13.8 mph - N/A   Mostly Cloudy
8:53 AM 50.0 °F - 46.9 °F 89% 30.04 in 4.0 mi WSW 12.7 mph - N/A   Mostly Cloudy
9:44 AM 50.0 °F - 48.0 °F 93% 30.06 in 4.0 mi WSW 17.3 mph - N/A   Overcast
9:53 AM 50.0 °F - 48.0 °F 93% 30.08 in 4.0 mi WSW 15.0 mph - N/A   Overcast
10:32 AM 51.1 °F - 48.0 °F 89% 30.10 in 3.0 mi WSW 19.6 mph - N/A   Overcast
10:53 AM 51.1 °F - 48.0 °F 89% 30.13 in 4.0 mi WSW 20.7 mph - N/A   Overcast
11:22 AM 52.0 °F - 48.9 °F 89% 30.13 in 3.0 mi WSW 18.4 mph - N/A   Overcast
11:31 AM 52.0 °F - 48.0 °F 86% 30.14 in 4.0 mi WSW 17.3 mph - N/A   Overcast
11:53 AM 52.0 °F - 48.9 °F 89% 30.16 in 3.0 mi SW 18.4 mph - N/A   Overcast
12:53 PM 54.0 °F - 48.9 °F 83% 30.18 in 3.0 mi SW 19.6 mph - N/A   Haze
1:53 PM 53.1 °F - 48.0 °F 83% 30.21 in 4.0 mi WSW 16.1 mph - N/A   Haze
2:53 PM 54.0 °F - 48.0 °F 80% 30.22 in 4.0 mi SW 17.3 mph - N/A   Haze
3:53 PM 52.0 °F - 46.0 °F 80% 30.24 in 4.0 mi SW 17.3 mph - N/A   Haze
4:22 PM 53.1 °F - 45.0 °F 74% 30.24 in 5.0 mi WSW 16.1 mph - N/A   Haze
4:53 PM 52.0 °F - 44.1 °F 74% 30.26 in 5.0 mi WSW 15.0 mph - N/A   Haze
5:49 PM 51.8 °F - 42.8 °F 71% 30.27 in 5.0 mi West 12.7 mph - N/A   Haze
5:53 PM 51.1 °F - 43.0 °F 74% 30.28 in 5.0 mi WSW 12.7 mph - N/A   Haze
6:53 PM 50.0 °F - 44.1 °F 80% 30.30 in 4.0 mi WSW 9.2 mph - N/A   Haze
7:14 PM 50.0 °F - 43.0 °F 77% 30.29 in 4.0 mi WSW 6.9 mph - N/A   Haze
7:39 PM 48.9 °F - 44.1 °F 83% 30.29 in 6.0 mi Calm Calm - N/A   Haze
7:53 PM 48.9 °F - 43.0 °F 80% 30.32 in 6.0 mi Calm Calm - N/A   Haze
8:02 PM 48.9 °F - 43.0 °F 80% 30.30 in 6.0 mi Calm Calm - N/A   Haze
8:37 PM 46.9 °F - 44.1 °F 90% 30.31 in 5.0 mi Calm Calm - N/A   Mostly Cloudy
8:53 PM 46.9 °F - 44.1 °F 90% 30.32 in 5.0 mi Calm Calm - N/A   Overcast
9:53 PM 45.0 °F 42.6 °F 43.0 °F 93% 30.34 in 4.0 mi NE 4.6 mph - N/A   Mostly Cloudy
10:10 PM 45.0 °F 41.8 °F 43.0 °F 93% 30.33 in 4.0 mi NE 5.8 mph - N/A   Scattered Clouds
10:46 PM 45.0 °F 41.2 °F 43.0 °F 93% 30.33 in 4.0 mi NE 6.9 mph - N/A   Mostly Cloudy
10:53 PM 45.0 °F 41.2 °F 43.0 °F 93% 30.34 in 4.0 mi NE 6.9 mph - N/A   Scattered Clouds
11:53 PM 45.0 °F 41.2 °F 43.0 °F 93% 30.34 in 5.0 mi NE 6.9 mph - N/A   Partly Cloudy